Year,Month,Day,Hour,Minute,Value (Times are PST for temperature in C)
2008,05,23,00,00,9.20
2008,05,23,00,01,9.20
2008,05,23,00,02,9.20
2008,05,23,00,03,9.20
2008,05,23,00,04,9.20
2008,05,23,00,05,9.10
2008,05,23,00,06,9.10
2008,05,23,00,07,9.10
2008,05,23,00,08,9.10
2008,05,23,00,09,9.00
2008,05,23,00,10,9.00
2008,05,23,00,11,9.00
2008,05,23,00,12,9.00
2008,05,23,00,13,9.00
2008,05,23,00,14,9.00
2008,05,23,00,15,8.90
2008,05,23,00,16,8.90
2008,05,23,00,17,8.90
2008,05,23,00,18,8.90
2008,05,23,00,19,8.90
2008,05,23,00,20,8.90
2008,05,23,00,21,8.80
2008,05,23,00,22,8.80
2008,05,23,00,23,8.80
2008,05,23,00,24,8.70
2008,05,23,00,25,8.70
2008,05,23,00,26,8.70
2008,05,23,00,27,8.70
2008,05,23,00,28,8.70
2008,05,23,00,29,8.70
2008,05,23,00,30,8.60
2008,05,23,00,31,8.60
2008,05,23,00,32,8.60
2008,05,23,00,33,8.60
2008,05,23,00,34,8.50
2008,05,23,00,35,8.50
2008,05,23,00,36,8.50
2008,05,23,00,37,8.50
2008,05,23,00,38,8.50
2008,05,23,00,39,8.40
2008,05,23,00,40,8.40
2008,05,23,00,41,8.40
2008,05,23,00,42,8.40
2008,05,23,00,43,8.30
2008,05,23,00,44,8.30
2008,05,23,00,45,8.30
2008,05,23,00,46,8.30
2008,05,23,00,47,8.20
2008,05,23,00,48,8.20
2008,05,23,00,49,8.20
2008,05,23,00,50,8.20
2008,05,23,00,51,8.20
2008,05,23,00,52,8.20
2008,05,23,00,53,8.20
2008,05,23,00,54,8.20
2008,05,23,00,55,8.20
2008,05,23,00,56,8.10
2008,05,23,00,57,8.10
2008,05,23,00,58,8.10
2008,05,23,00,59,8.10
2008,05,23,01,00,8.10
2008,05,23,01,01,8.10
2008,05,23,01,02,8.00
2008,05,23,01,03,8.00
2008,05,23,01,04,8.00
2008,05,23,01,05,8.00
2008,05,23,01,06,8.00
2008,05,23,01,07,8.00
2008,05,23,01,08,8.00
2008,05,23,01,09,8.00
2008,05,23,01,10,8.00
2008,05,23,01,11,8.00
2008,05,23,01,12,8.00
2008,05,23,01,13,8.00
2008,05,23,01,14,8.00
2008,05,23,01,15,8.00
2008,05,23,01,16,7.90
2008,05,23,01,17,7.90
2008,05,23,01,18,7.90
2008,05,23,01,19,7.90
2008,05,23,01,20,7.90
2008,05,23,01,21,7.90
2008,05,23,01,22,7.90
2008,05,23,01,23,7.90
2008,05,23,01,24,7.90
2008,05,23,01,25,8.00
2008,05,23,01,26,8.00
2008,05,23,01,27,8.00
2008,05,23,01,28,8.00
2008,05,23,01,29,8.00
2008,05,23,01,30,8.00
2008,05,23,01,31,8.00
2008,05,23,01,32,8.00
2008,05,23,01,33,8.00
2008,05,23,01,34,8.00
2008,05,23,01,35,8.00
2008,05,23,01,36,8.00
2008,05,23,01,37,8.00
2008,05,23,01,38,8.00
2008,05,23,01,39,8.00
2008,05,23,01,40,8.00
2008,05,23,01,41,8.00
2008,05,23,01,42,7.90
2008,05,23,01,43,7.90
2008,05,23,01,44,7.90
2008,05,23,01,45,7.90
2008,05,23,01,46,7.90
2008,05,23,01,47,7.90
2008,05,23,01,48,7.90
2008,05,23,01,49,7.90
2008,05,23,01,50,7.80
2008,05,23,01,51,7.80
2008,05,23,01,52,7.80
2008,05,23,01,53,7.80
2008,05,23,01,54,7.80
2008,05,23,01,55,7.80
2008,05,23,01,56,7.80
2008,05,23,01,57,7.80
2008,05,23,01,58,7.80
2008,05,23,01,59,7.80
2008,05,23,02,00,7.70
2008,05,23,02,01,7.70
2008,05,23,02,02,7.70
2008,05,23,02,03,7.70
2008,05,23,02,04,7.70
2008,05,23,02,05,7.70
2008,05,23,02,06,7.70
2008,05,23,02,07,7.70
2008,05,23,02,08,7.70
2008,05,23,02,09,7.70
2008,05,23,02,10,7.70
2008,05,23,02,11,7.70
2008,05,23,02,12,7.70
2008,05,23,02,13,7.70
2008,05,23,02,14,7.70
2008,05,23,02,15,7.70
2008,05,23,02,16,7.70
2008,05,23,02,17,7.60
2008,05,23,02,18,7.60
2008,05,23,02,19,7.60
2008,05,23,02,20,7.60
2008,05,23,02,21,7.60
2008,05,23,02,22,7.60
2008,05,23,02,23,7.60
2008,05,23,02,24,7.60
2008,05,23,02,25,7.60
2008,05,23,02,26,7.60
2008,05,23,02,27,7.60
2008,05,23,02,28,7.60
2008,05,23,02,29,7.60
2008,05,23,02,30,7.60
2008,05,23,02,31,7.60
2008,05,23,02,32,7.60
2008,05,23,02,33,7.60
2008,05,23,02,34,7.60
2008,05,23,02,35,7.60
2008,05,23,02,36,7.60
2008,05,23,02,37,7.60
2008,05,23,02,38,7.70
2008,05,23,02,39,7.70
2008,05,23,02,40,7.60
2008,05,23,02,41,7.60
2008,05,23,02,42,7.70
2008,05,23,02,43,7.70
2008,05,23,02,44,7.70
2008,05,23,02,45,7.70
2008,05,23,02,46,7.70
2008,05,23,02,47,7.70
2008,05,23,02,48,7.70
2008,05,23,02,49,7.60
2008,05,23,02,50,7.50
2008,05,23,02,51,7.50
2008,05,23,02,52,7.50
2008,05,23,02,53,7.40
2008,05,23,02,54,7.40
2008,05,23,02,55,7.40
2008,05,23,02,56,7.30
2008,05,23,02,57,7.30
2008,05,23,02,58,7.30
2008,05,23,02,59,7.30
2008,05,23,03,00,7.30
2008,05,23,03,01,7.30
2008,05,23,03,02,7.30
2008,05,23,03,03,7.30
2008,05,23,03,04,7.20
2008,05,23,03,05,7.20
2008,05,23,03,06,7.20
2008,05,23,03,07,7.20
2008,05,23,03,08,7.20
2008,05,23,03,09,7.20
2008,05,23,03,10,7.10
2008,05,23,03,11,7.10
2008,05,23,03,12,7.00
2008,05,23,03,13,7.00
2008,05,23,03,14,7.00
2008,05,23,03,15,7.00
2008,05,23,03,16,7.00
2008,05,23,03,17,6.90
2008,05,23,03,18,6.90
2008,05,23,03,19,6.90
2008,05,23,03,20,6.90
2008,05,23,03,21,6.90
2008,05,23,03,22,6.80
2008,05,23,03,23,6.80
2008,05,23,03,24,6.80
2008,05,23,03,25,6.80
2008,05,23,03,26,6.80
2008,05,23,03,27,6.80
2008,05,23,03,28,6.70
2008,05,23,03,29,6.70
2008,05,23,03,30,6.70
2008,05,23,03,31,6.70
2008,05,23,03,32,6.60
2008,05,23,03,33,6.60
2008,05,23,03,34,6.60
2008,05,23,03,35,6.60
2008,05,23,03,36,6.60
2008,05,23,03,37,6.60
2008,05,23,03,38,6.60
2008,05,23,03,39,6.60
2008,05,23,03,40,6.60
2008,05,23,03,41,6.60
2008,05,23,03,42,6.60
2008,05,23,03,43,6.60
2008,05,23,03,44,6.60
2008,05,23,03,45,6.40
2008,05,23,03,46,6.40
2008,05,23,03,47,6.40
2008,05,23,03,48,6.40
2008,05,23,03,49,6.40
2008,05,23,03,50,6.40
2008,05,23,03,51,6.40
2008,05,23,03,52,6.40
2008,05,23,03,53,6.40
2008,05,23,03,54,6.40
2008,05,23,03,55,6.40
2008,05,23,03,56,6.40
2008,05,23,03,57,6.40
2008,05,23,03,58,6.40
2008,05,23,03,59,6.40
2008,05,23,04,00,6.40
2008,05,23,04,01,6.40
2008,05,23,04,02,6.40
2008,05,23,04,03,6.30
2008,05,23,04,04,6.30
2008,05,23,04,05,6.30
2008,05,23,04,06,6.30
2008,05,23,04,07,6.30
2008,05,23,04,08,6.30
2008,05,23,04,09,6.20
2008,05,23,04,10,6.20
2008,05,23,04,11,6.20
2008,05,23,04,12,6.20
2008,05,23,04,13,6.20
2008,05,23,04,14,6.20
2008,05,23,04,15,6.20
2008,05,23,04,16,6.20
2008,05,23,04,17,6.20
2008,05,23,04,18,6.20
2008,05,23,04,19,6.20
2008,05,23,04,20,6.20
2008,05,23,04,21,6.20
2008,05,23,04,22,6.20
2008,05,23,04,23,6.20
2008,05,23,04,24,6.20
2008,05,23,04,25,6.20
2008,05,23,04,26,6.20
2008,05,23,04,27,6.20
2008,05,23,04,28,6.20
2008,05,23,04,29,6.20
2008,05,23,04,30,6.20
2008,05,23,04,31,6.20
2008,05,23,04,32,6.20
2008,05,23,04,33,6.20
2008,05,23,04,34,6.20
2008,05,23,04,35,6.20
2008,05,23,04,36,6.20
2008,05,23,04,37,6.20
2008,05,23,04,38,6.20
2008,05,23,04,39,6.20
2008,05,23,04,40,6.20
2008,05,23,04,41,6.20
2008,05,23,04,42,6.20
2008,05,23,04,43,6.20
2008,05,23,04,44,6.20
2008,05,23,04,45,6.20
2008,05,23,04,46,6.20
2008,05,23,04,47,6.20
2008,05,23,04,48,6.20
2008,05,23,04,49,6.20
2008,05,23,04,50,6.20
2008,05,23,04,51,6.20
2008,05,23,04,52,6.20
2008,05,23,04,53,6.20
2008,05,23,04,54,6.20
2008,05,23,04,55,6.20
2008,05,23,04,56,6.20
2008,05,23,04,57,6.20
2008,05,23,04,58,6.20
2008,05,23,04,59,6.20
2008,05,23,05,00,6.20
2008,05,23,05,01,6.30
2008,05,23,05,02,6.30
2008,05,23,05,03,6.30
2008,05,23,05,04,6.30
2008,05,23,05,05,6.30
2008,05,23,05,06,6.30
2008,05,23,05,07,6.30
2008,05,23,05,08,6.30
2008,05,23,05,09,6.30
2008,05,23,05,10,6.30
2008,05,23,05,11,6.30
2008,05,23,05,12,6.30
2008,05,23,05,13,6.30
2008,05,23,05,14,6.30
2008,05,23,05,15,6.30
2008,05,23,05,16,6.20
2008,05,23,05,17,6.20
2008,05,23,05,18,6.20
2008,05,23,05,19,6.20
2008,05,23,05,20,6.20
2008,05,23,05,21,6.10
2008,05,23,05,22,6.10
2008,05,23,05,23,6.10
2008,05,23,05,24,6.00
2008,05,23,05,25,6.00
2008,05,23,05,26,5.90
2008,05,23,05,27,5.90
2008,05,23,05,28,5.90
2008,05,23,05,29,5.80
2008,05,23,05,30,5.80
2008,05,23,05,31,5.70
2008,05,23,05,32,5.70
2008,05,23,05,33,5.70
2008,05,23,05,34,5.70
2008,05,23,05,35,5.70
2008,05,23,05,36,5.70
2008,05,23,05,37,5.70
2008,05,23,05,38,5.70
2008,05,23,05,39,5.70
2008,05,23,05,40,5.70
2008,05,23,05,41,5.70
2008,05,23,05,42,5.60
2008,05,23,05,43,5.60
2008,05,23,05,44,5.60
2008,05,23,05,45,5.60
2008,05,23,05,46,5.60
2008,05,23,05,47,5.60
2008,05,23,05,48,5.60
2008,05,23,05,49,5.60
2008,05,23,05,50,5.60
2008,05,23,05,51,5.60
2008,05,23,05,52,5.60
2008,05,23,05,53,5.50
2008,05,23,05,54,5.50
2008,05,23,05,55,5.50
2008,05,23,05,56,5.50
2008,05,23,05,57,5.50
2008,05,23,05,58,5.50
2008,05,23,05,59,5.50
2008,05,23,06,00,5.60
2008,05,23,06,01,5.60
2008,05,23,06,02,5.70
2008,05,23,06,03,5.70
2008,05,23,06,04,5.80
2008,05,23,06,05,5.80
2008,05,23,06,06,5.90
2008,05,23,06,07,5.90
2008,05,23,06,08,5.90
2008,05,23,06,09,5.90
2008,05,23,06,10,5.90
2008,05,23,06,11,5.90
2008,05,23,06,12,5.90
2008,05,23,06,13,5.90
2008,05,23,06,14,5.90
2008,05,23,06,15,6.00
2008,05,23,06,16,6.00
2008,05,23,06,17,6.10
2008,05,23,06,18,6.10
2008,05,23,06,19,6.20
2008,05,23,06,20,6.20
2008,05,23,06,21,6.30
2008,05,23,06,22,6.30
2008,05,23,06,23,6.40
2008,05,23,06,24,6.40
2008,05,23,06,25,6.50
2008,05,23,06,26,6.60
2008,05,23,06,27,6.60
2008,05,23,06,28,6.70
2008,05,23,06,29,6.70
2008,05,23,06,30,6.80
2008,05,23,06,31,6.80
2008,05,23,06,32,6.90
2008,05,23,06,33,7.00
2008,05,23,06,34,7.10
2008,05,23,06,35,7.20
2008,05,23,06,36,7.30
2008,05,23,06,37,7.30
2008,05,23,06,38,7.30
2008,05,23,06,39,7.30
2008,05,23,06,40,7.30
2008,05,23,06,41,7.30
2008,05,23,06,42,7.30
2008,05,23,06,43,7.30
2008,05,23,06,44,7.40
2008,05,23,06,45,7.40
2008,05,23,06,46,7.50
2008,05,23,06,47,7.50
2008,05,23,06,48,7.60
2008,05,23,06,49,7.60
2008,05,23,06,50,7.60
2008,05,23,06,51,7.60
2008,05,23,06,52,7.60
2008,05,23,06,53,7.60
2008,05,23,06,54,7.50
2008,05,23,06,55,7.50
2008,05,23,06,56,7.50
2008,05,23,06,57,7.60
2008,05,23,06,58,7.60
2008,05,23,06,59,7.60
2008,05,23,07,00,7.70
2008,05,23,07,01,7.80
2008,05,23,07,02,7.80
2008,05,23,07,03,7.80
2008,05,23,07,04,7.90
2008,05,23,07,05,7.90
2008,05,23,07,06,8.00
2008,05,23,07,07,8.00
2008,05,23,07,08,8.10
2008,05,23,07,09,8.10
2008,05,23,07,10,8.20
2008,05,23,07,11,8.20
2008,05,23,07,12,8.20
2008,05,23,07,13,8.20
2008,05,23,07,14,8.20
2008,05,23,07,15,8.40
2008,05,23,07,16,8.50
2008,05,23,07,17,8.60
2008,05,23,07,18,8.70
2008,05,23,07,19,8.80
2008,05,23,07,20,8.90
2008,05,23,07,21,9.00
2008,05,23,07,22,9.20
2008,05,23,07,23,9.30
2008,05,23,07,24,9.40
2008,05,23,07,25,9.60
2008,05,23,07,26,9.80
2008,05,23,07,27,9.90
2008,05,23,07,28,10.10
2008,05,23,07,29,10.20
2008,05,23,07,30,10.40
2008,05,23,07,31,10.40
2008,05,23,07,32,10.60
2008,05,23,07,33,10.60
2008,05,23,07,34,10.70
2008,05,23,07,35,10.70
2008,05,23,07,36,10.70
2008,05,23,07,37,10.80
2008,05,23,07,38,10.80
2008,05,23,07,39,10.80
2008,05,23,07,40,10.80
2008,05,23,07,41,10.80
2008,05,23,07,42,10.80
2008,05,23,07,43,10.90
2008,05,23,07,44,10.90
2008,05,23,07,45,10.90
2008,05,23,07,46,10.90
2008,05,23,07,47,10.90
2008,05,23,07,48,10.90
2008,05,23,07,49,10.90
2008,05,23,07,50,10.90
2008,05,23,07,51,10.90
2008,05,23,07,52,10.90
2008,05,23,07,53,11.00
2008,05,23,07,54,11.10
2008,05,23,07,55,11.20
2008,05,23,07,56,11.30
2008,05,23,07,57,11.40
2008,05,23,07,58,11.50
2008,05,23,07,59,11.60
2008,05,23,08,00,11.60
2008,05,23,08,01,11.70
2008,05,23,08,02,11.80
2008,05,23,08,03,11.80
2008,05,23,08,04,11.90
2008,05,23,08,05,11.90
2008,05,23,08,06,11.90
2008,05,23,08,07,12.00
2008,05,23,08,08,12.10
2008,05,23,08,09,12.10
2008,05,23,08,10,12.20
2008,05,23,08,11,12.20
2008,05,23,08,12,12.30
2008,05,23,08,13,12.30
2008,05,23,08,14,12.30
2008,05,23,08,15,12.40
2008,05,23,08,16,12.40
2008,05,23,08,17,12.40
2008,05,23,08,18,12.40
2008,05,23,08,19,12.40
2008,05,23,08,20,12.40
2008,05,23,08,21,12.40
2008,05,23,08,22,12.40
2008,05,23,08,23,12.50
2008,05,23,08,24,12.50
2008,05,23,08,25,12.50
2008,05,23,08,26,12.60
2008,05,23,08,27,12.60
2008,05,23,08,28,12.60
2008,05,23,08,29,12.60
2008,05,23,08,30,12.70
2008,05,23,08,31,12.70
2008,05,23,08,32,12.70
2008,05,23,08,33,12.80
2008,05,23,08,34,12.80
2008,05,23,08,35,12.80
2008,05,23,08,36,12.80
2008,05,23,08,37,12.80
2008,05,23,08,38,12.80
2008,05,23,08,39,12.90
2008,05,23,08,40,12.90
2008,05,23,08,41,13.00
2008,05,23,08,42,13.00
2008,05,23,08,43,13.10
2008,05,23,08,44,13.10
2008,05,23,08,45,13.10
2008,05,23,08,46,13.10
2008,05,23,08,47,13.20
2008,05,23,08,48,13.30
2008,05,23,08,49,13.40
2008,05,23,08,50,13.50
2008,05,23,08,51,13.60
2008,05,23,08,52,13.60
2008,05,23,08,53,13.70
2008,05,23,08,54,13.80
2008,05,23,08,55,14.00
2008,05,23,08,56,14.10
2008,05,23,08,57,14.20
2008,05,23,08,58,14.20
2008,05,23,08,59,14.20
2008,05,23,09,00,14.30
2008,05,23,09,01,14.30
2008,05,23,09,02,14.30
2008,05,23,09,03,14.30
2008,05,23,09,04,14.30
2008,05,23,09,05,14.30
2008,05,23,09,06,14.30
2008,05,23,09,07,14.30
2008,05,23,09,08,14.30
2008,05,23,09,09,14.30
2008,05,23,09,10,14.30
2008,05,23,09,11,14.20
2008,05,23,09,12,14.20
2008,05,23,09,13,14.20
2008,05,23,09,14,14.20
2008,05,23,09,15,14.20
2008,05,23,09,16,14.20
2008,05,23,09,17,14.10
2008,05,23,09,18,14.00
2008,05,23,09,19,14.00
2008,05,23,09,20,14.00
2008,05,23,09,21,13.90
2008,05,23,09,22,13.80
2008,05,23,09,23,13.80
2008,05,23,09,24,13.70
2008,05,23,09,25,13.80
2008,05,23,09,26,13.80
2008,05,23,09,27,13.80
2008,05,23,09,28,13.90
2008,05,23,09,29,13.90
2008,05,23,09,30,14.00
2008,05,23,09,31,14.00
2008,05,23,09,32,14.10
2008,05,23,09,33,14.20
2008,05,23,09,34,14.20
2008,05,23,09,35,14.20
2008,05,23,09,36,14.30
2008,05,23,09,37,14.40
2008,05,23,09,38,14.50
2008,05,23,09,39,14.60
2008,05,23,09,40,14.80
2008,05,23,09,41,15.00
2008,05,23,09,42,15.10
2008,05,23,09,43,15.20
2008,05,23,09,44,15.20
2008,05,23,09,45,15.30
2008,05,23,09,46,15.30
2008,05,23,09,47,15.30
2008,05,23,09,48,15.40
2008,05,23,09,49,15.40
2008,05,23,09,50,15.50
2008,05,23,09,51,15.60
2008,05,23,09,52,15.60
2008,05,23,09,53,15.70
2008,05,23,09,54,15.80
2008,05,23,09,55,15.80
2008,05,23,09,56,15.90
2008,05,23,09,57,16.10
2008,05,23,09,58,16.10
2008,05,23,09,59,16.20
2008,05,23,10,00,16.30
2008,05,23,10,01,16.40
2008,05,23,10,02,16.40
2008,05,23,10,03,16.50
2008,05,23,10,04,16.60
2008,05,23,10,05,16.60
2008,05,23,10,06,16.60
2008,05,23,10,07,16.60
2008,05,23,10,08,16.70
2008,05,23,10,09,16.70
2008,05,23,10,10,16.70
2008,05,23,10,11,16.70
2008,05,23,10,12,16.80
2008,05,23,10,13,16.80
2008,05,23,10,14,16.80
2008,05,23,10,15,16.90
2008,05,23,10,16,17.00
2008,05,23,10,17,17.10
2008,05,23,10,18,17.10
2008,05,23,10,19,17.00
2008,05,23,10,20,16.90
2008,05,23,10,21,16.90
2008,05,23,10,22,16.80
2008,05,23,10,23,16.70
2008,05,23,10,24,16.70
2008,05,23,10,25,16.70
2008,05,23,10,26,16.70
2008,05,23,10,27,16.40
2008,05,23,10,28,16.60
2008,05,23,10,29,16.60
2008,05,23,10,30,16.60
2008,05,23,10,31,16.60
2008,05,23,10,32,16.50
2008,05,23,10,33,16.40
2008,05,23,10,34,16.30
2008,05,23,10,35,16.30
2008,05,23,10,36,16.30
2008,05,23,10,37,16.30
2008,05,23,10,38,16.20
2008,05,23,10,39,16.20
2008,05,23,10,40,16.10
2008,05,23,10,41,15.90
2008,05,23,10,42,15.80
2008,05,23,10,43,15.80
2008,05,23,10,44,15.70
2008,05,23,10,45,15.60
2008,05,23,10,46,15.40
2008,05,23,10,47,15.30
2008,05,23,10,48,15.20
2008,05,23,10,49,15.10
2008,05,23,10,50,15.00
2008,05,23,10,51,14.90
2008,05,23,10,52,14.90
2008,05,23,10,53,14.90
2008,05,23,10,54,14.90
2008,05,23,10,55,14.90
2008,05,23,10,56,14.70
2008,05,23,10,57,14.60
2008,05,23,10,58,14.50
2008,05,23,10,59,14.40
2008,05,23,11,00,14.20
2008,05,23,11,01,14.20
2008,05,23,11,02,14.20
2008,05,23,11,03,14.20
2008,05,23,11,04,14.10
2008,05,23,11,05,14.00
2008,05,23,11,06,14.00
2008,05,23,11,07,14.00
2008,05,23,11,08,14.00
2008,05,23,11,09,14.00
2008,05,23,11,10,14.00
2008,05,23,11,11,14.00
2008,05,23,11,12,14.10
2008,05,23,11,13,14.10
2008,05,23,11,14,14.20
2008,05,23,11,15,14.20
2008,05,23,11,16,14.20
2008,05,23,11,17,14.20
2008,05,23,11,18,14.10
2008,05,23,11,19,14.00
2008,05,23,11,20,14.00
2008,05,23,11,21,14.00
2008,05,23,11,22,13.90
2008,05,23,11,23,13.90
2008,05,23,11,24,13.90
2008,05,23,11,25,13.90
2008,05,23,11,26,13.90
2008,05,23,11,27,13.90
2008,05,23,11,28,13.90
2008,05,23,11,29,14.00
2008,05,23,11,30,14.20
2008,05,23,11,31,14.20
2008,05,23,11,32,14.30
2008,05,23,11,33,14.50
2008,05,23,11,34,14.50
2008,05,23,11,35,14.60
2008,05,23,11,36,14.60
2008,05,23,11,37,14.70
2008,05,23,11,38,14.80
2008,05,23,11,39,14.90
2008,05,23,11,40,15.00
2008,05,23,11,41,15.10
2008,05,23,11,42,15.10
2008,05,23,11,43,15.10
2008,05,23,11,44,15.20
2008,05,23,11,45,15.30
2008,05,23,11,46,15.40
2008,05,23,11,47,15.50
2008,05,23,11,48,15.60
2008,05,23,11,49,15.80
2008,05,23,11,50,15.90
2008,05,23,11,51,16.00
2008,05,23,11,52,16.10
2008,05,23,11,53,16.20
2008,05,23,11,54,16.30
2008,05,23,11,55,16.40
2008,05,23,11,56,16.40
2008,05,23,11,57,16.60
2008,05,23,11,58,16.60
2008,05,23,11,59,16.70
2008,05,23,12,00,16.70
2008,05,23,12,01,16.70
2008,05,23,12,02,16.70
2008,05,23,12,03,16.60
2008,05,23,12,04,16.60
2008,05,23,12,05,16.50
2008,05,23,12,06,16.40
2008,05,23,12,07,16.40
2008,05,23,12,08,16.40
2008,05,23,12,09,16.40
2008,05,23,12,10,16.40
2008,05,23,12,11,16.60
2008,05,23,12,12,16.60
2008,05,23,12,13,16.70
2008,05,23,12,14,16.70
2008,05,23,12,15,16.70
2008,05,23,12,16,16.70
2008,05,23,12,17,16.70
2008,05,23,12,18,16.70
2008,05,23,12,19,16.70
2008,05,23,12,20,16.70
2008,05,23,12,21,16.60
2008,05,23,12,22,16.60
2008,05,23,12,23,16.60
2008,05,23,12,24,16.70
2008,05,23,12,25,16.70
2008,05,23,12,26,16.70
2008,05,23,12,27,16.70
2008,05,23,12,28,16.70
2008,05,23,12,29,16.80
2008,05,23,12,30,16.90
2008,05,23,12,31,16.90
2008,05,23,12,32,17.00
2008,05,23,12,33,17.10
2008,05,23,12,34,17.20
2008,05,23,12,35,17.30
2008,05,23,12,36,17.40
2008,05,23,12,37,17.40
2008,05,23,12,38,17.40
2008,05,23,12,39,17.40
2008,05,23,12,40,17.50
2008,05,23,12,41,17.50
2008,05,23,12,42,17.60
2008,05,23,12,43,17.70
2008,05,23,12,44,17.70
2008,05,23,12,45,17.80
2008,05,23,12,46,17.80
2008,05,23,12,47,17.80
2008,05,23,12,48,17.80
2008,05,23,12,49,17.80
2008,05,23,12,50,17.80
2008,05,23,12,51,17.90
2008,05,23,12,52,17.90
2008,05,23,12,53,17.90
2008,05,23,12,54,17.90
2008,05,23,12,55,18.00
2008,05,23,12,56,18.10
2008,05,23,12,57,18.10
2008,05,23,12,58,18.20
2008,05,23,12,59,18.20
2008,05,23,13,00,18.20
2008,05,23,13,01,18.20
2008,05,23,13,02,18.30
2008,05,23,13,03,18.30
2008,05,23,13,04,18.40
2008,05,23,13,05,18.40
2008,05,23,13,06,18.50
2008,05,23,13,07,18.50
2008,05,23,13,08,18.50
2008,05,23,13,09,18.60
2008,05,23,13,10,18.70
2008,05,23,13,11,18.70
2008,05,23,13,12,18.70
2008,05,23,13,13,18.80
2008,05,23,13,14,18.80
2008,05,23,13,15,18.90
2008,05,23,13,16,18.80
2008,05,23,13,17,18.80
2008,05,23,13,18,18.70
2008,05,23,13,19,18.70
2008,05,23,13,20,18.70
2008,05,23,13,21,18.70
2008,05,23,13,22,18.70
2008,05,23,13,23,18.70
2008,05,23,13,24,18.70
2008,05,23,13,25,18.60
2008,05,23,13,26,18.60
2008,05,23,13,27,18.60
2008,05,23,13,28,18.60
2008,05,23,13,29,18.60
2008,05,23,13,30,18.60
2008,05,23,13,31,18.50
2008,05,23,13,32,18.50
2008,05,23,13,33,18.40
2008,05,23,13,34,18.40
2008,05,23,13,35,18.30
2008,05,23,13,36,18.40
2008,05,23,13,37,18.30
2008,05,23,13,38,18.20
2008,05,23,13,39,18.20
2008,05,23,13,40,18.10
2008,05,23,13,41,18.10
2008,05,23,13,42,18.10
2008,05,23,13,43,18.10
2008,05,23,13,44,18.10
2008,05,23,13,45,18.10
2008,05,23,13,46,18.10
2008,05,23,13,47,18.20
2008,05,23,13,48,18.20
2008,05,23,13,49,18.20
2008,05,23,13,50,18.20
2008,05,23,13,51,18.20
2008,05,23,13,52,18.20
2008,05,23,13,53,18.20
2008,05,23,13,54,18.30
2008,05,23,13,55,18.50
2008,05,23,13,56,18.60
2008,05,23,13,57,18.70
2008,05,23,13,58,18.70
2008,05,23,13,59,18.80
2008,05,23,14,00,18.80
2008,05,23,14,01,18.80
2008,05,23,14,02,18.90
2008,05,23,14,03,18.90
2008,05,23,14,04,19.10
2008,05,23,14,05,19.10
2008,05,23,14,06,19.10
2008,05,23,14,07,19.20
2008,05,23,14,08,19.20
2008,05,23,14,09,19.30
2008,05,23,14,10,19.20
2008,05,23,14,11,19.10
2008,05,23,14,12,19.10
2008,05,23,14,13,19.10
2008,05,23,14,14,19.10
2008,05,23,14,15,18.90
2008,05,23,14,16,18.80
2008,05,23,14,17,18.80
2008,05,23,14,18,18.70
2008,05,23,14,19,18.60
2008,05,23,14,20,18.60
2008,05,23,14,21,18.60
2008,05,23,14,22,18.60
2008,05,23,14,23,18.50
2008,05,23,14,24,18.40
2008,05,23,14,25,18.30
2008,05,23,14,26,18.20
2008,05,23,14,27,18.20
2008,05,23,14,28,18.20
2008,05,23,14,29,18.30
2008,05,23,14,30,18.30
2008,05,23,14,31,18.30
2008,05,23,14,32,18.20
2008,05,23,14,33,18.30
2008,05,23,14,34,18.40
2008,05,23,14,35,18.50
2008,05,23,14,36,18.60
2008,05,23,14,37,18.70
2008,05,23,14,38,18.70
2008,05,23,14,39,18.80
2008,05,23,14,40,18.80
2008,05,23,14,41,18.80
2008,05,23,14,42,18.90
2008,05,23,14,43,19.10
2008,05,23,14,44,19.10
2008,05,23,14,45,19.20
2008,05,23,14,46,19.20
2008,05,23,14,47,19.30
2008,05,23,14,48,19.30
2008,05,23,14,49,19.40
2008,05,23,14,50,19.50
2008,05,23,14,51,19.50
2008,05,23,14,52,19.50
2008,05,23,14,53,19.50
2008,05,23,14,54,19.50
2008,05,23,14,55,19.50
2008,05,23,14,56,19.50
2008,05,23,14,57,19.60
2008,05,23,14,58,19.50
2008,05,23,14,59,19.40
2008,05,23,15,00,19.40
2008,05,23,15,01,19.30
2008,05,23,15,02,19.10
2008,05,23,15,03,18.90
2008,05,23,15,04,18.90
2008,05,23,15,05,18.70
2008,05,23,15,06,18.60
2008,05,23,15,07,18.50
2008,05,23,15,08,18.40
2008,05,23,15,09,18.30
2008,05,23,15,10,18.20
2008,05,23,15,11,18.10
2008,05,23,15,12,17.90
2008,05,23,15,13,17.80
2008,05,23,15,14,17.60
2008,05,23,15,15,17.60
2008,05,23,15,16,17.30
2008,05,23,15,17,17.30
2008,05,23,15,18,17.20
2008,05,23,15,19,17.20
2008,05,23,15,20,17.20
2008,05,23,15,21,17.20
2008,05,23,15,22,17.20
2008,05,23,15,23,17.10
2008,05,23,15,24,17.10
2008,05,23,15,25,17.10
2008,05,23,15,26,17.00
2008,05,23,15,27,17.00
2008,05,23,15,28,16.90
2008,05,23,15,29,16.90
2008,05,23,15,30,16.90
2008,05,23,15,31,16.90
2008,05,23,15,32,16.90
2008,05,23,15,33,16.90
2008,05,23,15,34,16.90
2008,05,23,15,35,17.00
2008,05,23,15,36,17.10
2008,05,23,15,37,17.10
2008,05,23,15,38,17.10
2008,05,23,15,39,17.10
2008,05,23,15,40,17.00
2008,05,23,15,41,16.90
2008,05,23,15,42,16.90
2008,05,23,15,43,16.90
2008,05,23,15,44,17.00
2008,05,23,15,45,17.00
2008,05,23,15,46,17.10
2008,05,23,15,47,17.20
2008,05,23,15,48,17.30
2008,05,23,15,49,17.30
2008,05,23,15,50,17.30
2008,05,23,15,51,17.40
2008,05,23,15,52,17.30
2008,05,23,15,53,17.30
2008,05,23,15,54,17.10
2008,05,23,15,55,17.10
2008,05,23,15,56,17.00
2008,05,23,15,57,16.80
2008,05,23,15,58,16.60
2008,05,23,15,59,16.50
2008,05,23,16,00,16.40
2008,05,23,16,01,16.40
2008,05,23,16,02,16.40
2008,05,23,16,03,16.30
2008,05,23,16,04,16.30
2008,05,23,16,05,16.40
2008,05,23,16,06,16.40
2008,05,23,16,07,16.30
2008,05,23,16,08,16.30
2008,05,23,16,09,16.20
2008,05,23,16,10,16.20
2008,05,23,16,11,16.20
2008,05,23,16,12,16.20
2008,05,23,16,13,16.10
2008,05,23,16,14,16.10
2008,05,23,16,15,15.90
2008,05,23,16,16,15.80
2008,05,23,16,17,15.80
2008,05,23,16,18,15.80
2008,05,23,16,19,15.70
2008,05,23,16,20,15.70
2008,05,23,16,21,15.70
2008,05,23,16,22,15.70
2008,05,23,16,23,15.70
2008,05,23,16,24,15.70
2008,05,23,16,25,15.60
2008,05,23,16,26,15.40
2008,05,23,16,27,15.30
2008,05,23,16,28,15.30
2008,05,23,16,29,15.30
2008,05,23,16,30,15.30
2008,05,23,16,31,15.30
2008,05,23,16,32,15.30
2008,05,23,16,33,15.30
2008,05,23,16,34,15.20
2008,05,23,16,35,15.20
2008,05,23,16,36,15.20
2008,05,23,16,37,15.20
2008,05,23,16,38,15.20
2008,05,23,16,39,15.30
2008,05,23,16,40,15.30
2008,05,23,16,41,15.30
2008,05,23,16,42,15.30
2008,05,23,16,43,15.30
2008,05,23,16,44,15.30
2008,05,23,16,45,15.30
2008,05,23,16,46,15.30
2008,05,23,16,47,15.30
2008,05,23,16,48,15.40
2008,05,23,16,49,15.40
2008,05,23,16,50,15.40
2008,05,23,16,51,15.50
2008,05,23,16,52,15.50
2008,05,23,16,53,15.50
2008,05,23,16,54,15.60
2008,05,23,16,55,15.60
2008,05,23,16,56,15.60
2008,05,23,16,57,15.70
2008,05,23,16,58,15.70
2008,05,23,16,59,15.80
2008,05,23,17,00,15.80
2008,05,23,17,01,15.80
2008,05,23,17,02,15.90
2008,05,23,17,03,15.90
2008,05,23,17,04,15.90
2008,05,23,17,05,15.90
2008,05,23,17,06,15.90
2008,05,23,17,07,15.80
2008,05,23,17,08,15.80
2008,05,23,17,09,15.90
2008,05,23,17,10,15.90
2008,05,23,17,11,15.90
2008,05,23,17,12,15.90
2008,05,23,17,13,16.10
2008,05,23,17,14,16.10
2008,05,23,17,15,16.10
2008,05,23,17,16,16.10
2008,05,23,17,17,16.10
2008,05,23,17,18,16.10
2008,05,23,17,19,16.10
2008,05,23,17,20,16.10
2008,05,23,17,21,16.10
2008,05,23,17,22,16.10
2008,05,23,17,23,16.10
2008,05,23,17,24,16.10
2008,05,23,17,25,16.10
2008,05,23,17,26,16.10
2008,05,23,17,27,16.10
2008,05,23,17,28,16.10
2008,05,23,17,29,16.00
2008,05,23,17,30,15.90
2008,05,23,17,31,15.90
2008,05,23,17,32,15.90
2008,05,23,17,33,15.90
2008,05,23,17,34,16.00
2008,05,23,17,35,16.00
2008,05,23,17,36,16.10
2008,05,23,17,37,16.10
2008,05,23,17,38,16.10